Weather observations for the past three days for
Springfield, Comanche National Grassland
| Date | Time (mdt) | Wind (kph) | Vis. (km) | Weather | Sky Cond. | Temperature (ºC) | Relative Humidity | Wind Chill (°C) | Heat Index (°C) | Pressure | Precipitation (cm) | ||||||
|---|---|---|---|---|---|---|---|---|---|---|---|---|---|---|---|---|---|
| Air | Dwpt | 6 hour | altimeter (cm) | sea level (mb) | 1 hr | 3 hr | 6 hr | ||||||||||
| Max. | Min. | ||||||||||||||||
| 08 | 05:56 | NW 17 | 0.00 | NULL | NULL | 7.8 | 2.2 | 17.8 | 7.8 | 68% | 5 | 76.02 | 1008.9 | ||||
| 08 | 04:56 | N 31 | 0.00 | NULL | NULL | 11.7 | 1.7 | 51% | 75.97 | 1007.5 | |||||||
| 08 | 03:56 | NW 19 | 0.00 | NULL | NULL | 12.8 | 0 | 42% | 75.92 | 1006.6 | |||||||
| 08 | 02:56 | W 19 G 37 | 0.00 | NULL | NULL | 12.8 | 0 | 42% | 75.95 | 1007.1 | |||||||
| 08 | 01:56 | SW 24 G 39 | 0.00 | NULL | NULL | 15 | -0.6 | 35% | 75.9 | 1006.1 | |||||||
| 08 | 00:56 | W 15 | 0.00 | NULL | NULL | 13.9 | -0.6 | 37% | 76 | 1008.0 | |||||||
| 07 | 23:56 | SW 22 | 0.00 | NULL | NULL | 16.1 | -1.1 | 23.9 | 11.1 | 31% | 75.97 | 1007.7 | |||||
| 07 | 22:56 | SW 20 | 0.00 | NULL | NULL | 15.6 | 0.6 | 36% | 76 | 1008.2 | |||||||
| 07 | 21:56 | SW 7 | 0.00 | NULL | NULL | 12.2 | 0 | 43% | 76.02 | 1009.2 | |||||||
| 07 | 20:56 | SW 7 | 0.00 | NULL | NULL | 11.1 | -2.2 | 40% | 76 | 1009.5 | |||||||
| 07 | 19:56 | S 17 | 0.00 | NULL | NULL | 15 | -2.2 | 31% | 75.97 | 1009.3 | |||||||
| 07 | 18:56 | S 9 | 0.00 | NULL | NULL | 21.7 | -5.6 | 16% | 75.92 | 1008.7 | |||||||
| 07 | 17:56 | S 17 | 0.00 | NULL | NULL | 23.3 | -6.7 | 25 | 20 | 13% | 75.92 | 1008.6 | |||||
| 07 | 16:56 | NW 6 | 0.00 | NULL | NULL | 24.4 | -7.8 | 11% | 24 | 75.92 | 1008.8 | ||||||
| 07 | 15:56 | NW 17 G 26 | 0.00 | NULL | NULL | 25 | -7.2 | 11% | 25 | 75.97 | 1009.4 | ||||||
| 07 | 14:56 | Vrbl 9 | 0.00 | NULL | NULL | 23.9 | -5.6 | 14% | 24 | 76.05 | 1010.5 | ||||||
| 07 | 13:56 | Vrbl 11 | 0.00 | NULL | NULL | 23.3 | -5 | 15% | 76.12 | 1011.6 | |||||||
| 07 | 12:56 | W 9 | 0.00 | NULL | NULL | 21.7 | -5 | 16% | 76.17 | 1012.7 | |||||||
| 07 | 11:56 | Vrbl 6 | 0.00 | NULL | NULL | 20 | -5.6 | 21.1 | 0 | 17% | 76.23 | 1013.8 | |||||
| 07 | 10:56 | W 9 | 0.00 | NULL | NULL | 20 | -6.1 | 17% | 76.3 | 1014.4 | |||||||
| 07 | 09:56 | W 17 G 31 | 0.00 | NULL | NULL | 17.8 | -2.2 | 26% | 76.33 | 1014.8 | |||||||
| 07 | 08:56 | W 20 G 37 | 0.00 | NULL | NULL | 15.6 | 0.6 | 36% | 76.35 | 1015.1 | |||||||
| 07 | 07:56 | SW 24 G 31 | 0.00 | NULL | NULL | 8.3 | 1.7 | 63% | 5 | 76.38 | 1016.8 | ||||||
| 07 | 06:56 | SW 15 | 0.00 | NULL | NULL | 2.2 | -1.1 | 79% | -1 | 76.35 | 1017.6 | ||||||
| 07 | 05:56 | W 15 | 0.00 | NULL | NULL | 1.1 | -2.8 | 1.1 | -1.7 | 76% | -3 | 76.4 | 1018.4 | ||||
| 07 | 04:56 | SW 19 | 0.00 | NULL | NULL | -0.6 | -2.8 | 85% | -5 | 76.4 | 1018.3 | ||||||
| 07 | 03:56 | SW 19 | 0.00 | NULL | NULL | -1.1 | -2.8 | 88% | -6 | 76.43 | 1019.2 | ||||||
| 07 | 02:56 | SW 15 | 0.00 | NULL | NULL | -1.1 | -2.8 | 88% | -5 | 76.45 | 1019.4 | ||||||
| 07 | 01:56 | SW 13 | 0.00 | NULL | NULL | -1.7 | -2.8 | 92% | -6 | 76.53 | 1020.6 | ||||||
| 07 | 00:56 | SW 11 | 0.00 | NULL | NULL | -1.7 | -2.8 | 92% | -5 | 76.53 | 1020.8 | ||||||
| 06 | 22:56 | SW 9 | 0.00 | NULL | NULL | 0 | -1.1 | 92% | -3 | 76.58 | 1021.3 | ||||||
| 06 | 21:56 | SW 6 | 0.00 | NULL | NULL | 1.7 | 0 | 89% | 76.61 | 1021.1 | |||||||
| 06 | 20:56 | NW 7 | 0.00 | NULL | NULL | 3.9 | 1.7 | 86% | 2 | 76.56 | 1020.3 | ||||||
| 06 | 19:56 | W 6 | 0.00 | NULL | NULL | 3.3 | 1.7 | 89% | 76.53 | 1020.2 | |||||||
| 06 | 18:56 | N 11 | 0.00 | NULL | NULL | 3.9 | 2.2 | 89% | 1 | 76.5 | 1019.5 | ||||||
| 06 | 17:56 | N 15 | 0.00 | NULL | NULL | 3.3 | 2.2 | 5 | 2.8 | 93% | 0 | 76.5 | 1019.7 | 0.03 | |||
| 06 | 16:56 | Calm | 0.00 | NULL | NULL | 5 | 2.8 | 86% | 76.43 | 1018.3 | 0.03 | ||||||
| 06 | 15:56 | SE 7 | 0.00 | NULL | NULL | 4.4 | 2.8 | 89% | 3 | 76.4 | 1018.2 | ||||||
| 06 | 14:56 | SE 17 | 0.00 | NULL | NULL | 3.9 | 2.2 | 89% | 0 | 76.4 | 1018.2 | ||||||
| 06 | 13:56 | SE 17 | 0.00 | NULL | NULL | 4.4 | 2.8 | 89% | 1 | 76.38 | 1017.9 | ||||||
| 06 | 12:56 | SE 24 | 0.00 | NULL | NULL | 3.9 | 2.2 | 89% | -0 | 76.38 | 1017.6 | ||||||
| 06 | 11:56 | E 22 | 0.00 | NULL | NULL | 4.4 | 3.3 | 4.4 | 2.2 | 93% | 0 | 76.38 | 1017.5 | 0.05 | 0.41 | ||
| 06 | 10:56 | E 22 | 0.00 | NULL | NULL | 3.3 | 2.8 | 97% | -1 | 76.38 | 1017.3 | 0.05 | |||||
| 06 | 09:56 | E 20 | 0.00 | NULL | NULL | 2.8 | 1.7 | 93% | -1 | 76.33 | 1016.6 | 0.15 | |||||
| 06 | 08:56 | E 19 | 0.00 | NULL | NULL | 2.2 | 1.7 | 97% | -2 | 76.3 | 1016.4 | 0.05 | 0.15 | ||||
| 06 | 07:56 | E 19 | 0.00 | NULL | NULL | 2.2 | 1.7 | 97% | -2 | 76.3 | 1016.1 | 0.05 | |||||
| 06 | 06:56 | SE 19 | 0.00 | NULL | NULL | 2.2 | 1.7 | 97% | -2 | 76.25 | 1015.4 | 0.05 | |||||
| 06 | 05:56 | E 15 | 0.00 | NULL | NULL | 2.2 | 1.7 | 4.4 | 1.7 | 97% | -1 | 76.2 | 1014.5 | 0.03 | |||
| 06 | 04:56 | E 19 | 0.00 | NULL | NULL | 2.2 | 1.1 | 93% | -2 | 76.12 | 1013.3 | ||||||
| 06 | 03:56 | E 17 | 0.00 | NULL | NULL | 2.2 | 1.1 | 93% | -2 | 76.12 | 1013.3 | ||||||
| 06 | 02:56 | E 17 | 0.00 | NULL | NULL | 2.2 | 1.1 | 93% | -2 | 76.1 | 1013.2 | 0.03 | 0.03 | ||||
| 06 | 01:56 | E 17 | 0.00 | NULL | NULL | 2.2 | 1.1 | 93% | -2 | 76.15 | 1013.7 | ||||||
| 06 | 00:56 | E 24 | 0.00 | NULL | NULL | 3.3 | 0.6 | 83% | -1 | 76.15 | 1013.8 | ||||||
| 05 | 23:56 | E 24 | 0.00 | NULL | NULL | 4.4 | 0.6 | 8.9 | 4.4 | 77% | 0 | 76.07 | 1012.8 | ||||
| 05 | 22:56 | E 24 G 33 | 0.00 | NULL | NULL | 5 | 0.6 | 73% | 1 | 76.07 | 1012.4 | ||||||
| 05 | 21:56 | E 15 | 0.00 | NULL | NULL | 5.6 | 1.1 | 73% | 3 | 76.07 | 1012.4 | ||||||
| 05 | 20:56 | E 20 | 0.00 | NULL | NULL | 6.1 | 1.1 | 71% | 3 | 76 | 1011.2 | ||||||
| 05 | 19:56 | E 28 | 0.00 | NULL | NULL | 7.2 | 0.6 | 63% | 3 | 75.9 | 1010.0 | ||||||
| 05 | 18:56 | SE 24 | 0.00 | NULL | NULL | 8.9 | 0.6 | 56% | 6 | 75.84 | 1008.7 | ||||||
| 05 | 17:56 | E 22 | 0.00 | NULL | NULL | 8.9 | 1.1 | 10.6 | 7.8 | 58% | 6 | 75.87 | 1009.1 | ||||
| 05 | 16:56 | E 15 | 0.00 | NULL | NULL | 9.4 | 0.6 | 55% | 7 | 75.9 | 1009.1 | ||||||
| 05 | 15:56 | E 19 | 0.00 | NULL | NULL | 9.4 | 0 | 52% | 7 | 75.9 | 1009.1 | ||||||
| 05 | 14:56 | E 20 G 33 | 0.00 | NULL | NULL | 9.4 | 0 | 52% | 7 | 75.92 | 1009.3 | ||||||
| 05 | 13:56 | E 22 | 0.00 | NULL | NULL | 9.4 | 0.6 | 55% | 7 | 75.92 | 1009.3 | ||||||
| 05 | 12:56 | E 20 G 31 | 0.00 | NULL | NULL | 8.9 | 0.6 | 56% | 6 | 75.97 | 1009.9 | ||||||
| 05 | 11:56 | NE 20 | 0.00 | NULL | NULL | 7.8 | 0 | 8.3 | 6.7 | 58% | 5 | 76.05 | 1010.7 | ||||
| 05 | 10:56 | NE 26 | 0.00 | NULL | NULL | 8.3 | 0 | 56% | 5 | 76.02 | 1010.0 | ||||||
| 05 | 09:56 | NE 30 G 37 | 0.00 | NULL | NULL | 7.8 | 0.6 | 61% | 4 | 76.02 | 1009.8 | ||||||
| 05 | 08:56 | NE 30 | 0.00 | NULL | NULL | 7.8 | 1.7 | 66% | 4 | 76.02 | 1009.8 | ||||||
| 05 | 07:56 | N 26 | 0.00 | NULL | NULL | 7.2 | 2.2 | 71% | 4 | 76.02 | 1009.7 | ||||||
| 05 | 06:56 | N 28 | 0.00 | NULL | NULL | 7.2 | 2.8 | 74% | 3 | 75.95 | 1007.8 | ||||||
| Date | Time (mdt) | Wind (kph) | Vis. (km) | Weather | Sky Cond. | Air | Dwpt | Max. | Min. | Relative Humidity | Wind Chill (°C) | Heat Index (°C) | altimeter (cm) | sea level (mb) | 1 hr | 3 hr | 6 hr |
| 6 hour | |||||||||||||||||
| Temperature (ºC) | Pressure | Precipitation (cm) | |||||||||||||||